West Paducah, KY

8:42 PM CST on January 21, 2017 (GMT -0600)
Paducah

Weather History for KPAH - February, 2012

Change the Weather History Date:

Friday, February 24, 2012

  Actual Average Record
Temperature  
Mean Temperature 46 °F 42 °F  
Max Temperature 58 °F 52 °F 73 °F (2000)
Min Temperature 33 °F 32 °F 9 °F (1967)
Degree Days  
Heating Degree Days 19 23  
Month to date heating degree days 553 610  
Since 1 July heating degree days 2725 3183  
Cooling Degree Days 0 0  
Month to date cooling degree days 0 0  
Year to date cooling degree days 0 0  
Moisture  
Dew Point 27 °F    
Average Humidity 54    
Maximum Humidity 66    
Minimum Humidity 42    
Precipitation  
Precipitation 0.00 in 0.14 in 3.20 in (2011)
Month to date precipitation 1.65 3.22  
Year to date precipitation 5.20 6.90  
Snow  
Snow 0.00 in 0.10 in 1.00 in (1966)
Month to date snowfall 0.3 2.8  
Since 1 July snowfall 0.7 8.1  
Snow Depth 0.00 in    
Sea Level Pressure  
Sea Level Pressure 29.93 in    
Wind  
Wind Speed 12 mph (WNW)    
Max Wind Speed 26 mph    
Max Gust Speed 36 mph    
Visibility 10 miles    
Events      
T = Trace of Precipitation, MM = Missing Value Source: NWS Daily Summary

Daily Weather History Graph

Daily Weather History Graph

Search for Another Location

Airport or City:

Trip Planner

Search our weather history database for the weather conditions in past years. The results will help you decide how hot, cold, wet, or windy it might be!

Date:

Astronomy

Feb. 24, 2012 Rise Set
Actual Time 6:33 AM CST 5:43 PM CST
Civil Twilight 6:07 AM CST 6:10 PM CST
Nautical Twilight 5:36 AM CST 6:40 PM CST
Astronomical Twilight 5:06 AM CST 7:10 PM CST
Moon 7:33 AM CST (2/24) 8:41 PM CST (2/24)
Length of Visible Light 12h 03m
Length of Day
11h 10m
Waxing Crescent, 8% of the Moon is Illuminated
Feb 24
Waxing Crescent
Feb 29
First Quarter
Mar 8
Full
Mar 14
Last Quarter
Mar 22
New

Hourly Weather History & Observations

Time (CST) Temp. Windchill Dew Point Humidity Pressure Visibility Wind Dir Wind Speed Gust Speed Precip Events Conditions
12:53 AM 54.0 °F - 39.9 °F 59% 29.54 in 10.0 mi WNW 9.2 mph - N/A   Scattered Clouds
1:53 AM 50.0 °F - 39.9 °F 68% 29.57 in 10.0 mi West 8.1 mph - N/A   Clear
2:53 AM 52.0 °F - 39.9 °F 63% 29.60 in 10.0 mi West 9.2 mph 18.4 mph N/A   Scattered Clouds
3:53 AM 50.0 °F - 28.0 °F 43% 29.62 in 10.0 mi WNW 17.3 mph 23.0 mph N/A   Overcast
4:53 AM 48.9 °F - 27.0 °F 43% 29.67 in 10.0 mi West 10.4 mph - N/A   Overcast
5:53 AM 46.9 °F - 24.1 °F 41% 29.71 in 10.0 mi West 17.3 mph 25.3 mph N/A   Overcast
6:53 AM 44.1 °F 35.9 °F 27.0 °F 51% 29.77 in 10.0 mi West 19.6 mph 26.5 mph N/A   Scattered Clouds
7:53 AM 43.0 °F 35.1 °F 26.1 °F 51% 29.83 in 10.0 mi WNW 17.3 mph 26.5 mph N/A   Partly Cloudy
8:53 AM 44.1 °F 35.9 °F 27.0 °F 51% 29.87 in 10.0 mi West 19.6 mph 27.6 mph N/A   Overcast
9:53 AM 46.0 °F 39.3 °F 28.0 °F 50% 29.92 in 10.0 mi WNW 16.1 mph 29.9 mph N/A   Mostly Cloudy
10:53 AM 43.0 °F 34.2 °F 28.0 °F 56% 29.95 in 10.0 mi WNW 20.7 mph 33.4 mph N/A   Overcast
11:53 AM 46.0 °F 38.8 °F 27.0 °F 47% 29.97 in 10.0 mi NW 18.4 mph 26.5 mph N/A   Overcast
12:53 PM 44.1 °F 36.2 °F 26.1 °F 49% 30.00 in 10.0 mi WNW 18.4 mph 31.1 mph N/A   Overcast
1:53 PM 45.0 °F 38.2 °F 26.1 °F 48% 30.02 in 10.0 mi WNW 15.0 mph 31.1 mph N/A   Overcast
2:53 PM 45.0 °F 38.9 °F 26.1 °F 48% 30.04 in 10.0 mi WNW 12.7 mph 25.3 mph N/A   Overcast
3:53 PM 46.0 °F 39.0 °F 25.0 °F 44% 30.06 in 10.0 mi West 17.3 mph 23.0 mph N/A   Mostly Cloudy
4:53 PM 46.0 °F 41.4 °F 24.1 °F 42% 30.08 in 10.0 mi WNW 9.2 mph - N/A   Mostly Cloudy
5:53 PM 43.0 °F 38.8 °F 21.9 °F 43% 30.09 in 10.0 mi WNW 6.9 mph - N/A   Partly Cloudy
6:53 PM 41.0 °F 39.0 °F 23.0 °F 49% 30.11 in 10.0 mi WNW 3.5 mph - N/A   Clear
7:53 PM 39.9 °F 35.1 °F 21.9 °F 49% 30.14 in 10.0 mi WNW 6.9 mph - N/A   Clear
8:53 PM 37.0 °F 33.3 °F 21.9 °F 54% 30.15 in 10.0 mi West 4.6 mph - N/A   Clear
9:53 PM 35.1 °F 30.1 °F 21.9 °F 59% 30.17 in 10.0 mi West 5.8 mph - N/A   Clear
10:53 PM 36.0 °F 30.3 °F 21.9 °F 57% 30.18 in 10.0 mi WNW 6.9 mph - N/A   Clear
11:53 PM 36.0 °F 31.1 °F 21.0 °F 55% 30.17 in 10.0 mi West 5.8 mph - N/A   Clear